User: anonymous   Login
Location: Mercogliano
(40.9167°N, 14.7333°E)
Time: 05:08:05
(UTC+00:00)
Language:

Cosmos 2150 Rocket - Orbit

View from above orbital plane
View from above orbital plane
View from above satellite
View from above satellite

Ground track
Ground track

The orbit data is extracted from the following two-line orbital elements,

1 21419U 91041B   20337.21669925  .00000154  00000-0  63707-4 0  9994
2 21419  74.0379 147.3886 0040104 126.8622 233.6218 14.33975641541381
Epoch (UTC): 02 December 2020 05:12:02
Eccentricity: 0.0040104
inclination: 74.0379°
perigee height: 750 km
apogee height: 807 km
right ascension of ascending node: 147.3886°
argument of perigee: 126.8622°
revolutions per day: 14.33975641
mean anomaly at epoch: 233.6218°
orbit number at epoch: 54138

The dashed part of the orbit path shows where the satellite is in the earth's shadow,  

DLR